EW1979 Weather Reports


time (UTC)temp
C
wind
direction
speed
KPH
gust
KPH
rain 1hr
cm
rain 24hr
cm
rain mn
cm
humidity
%
barometer
mb
20260904140058 24 151 8.0 0.0 0.00 0.00 0.00 86 1010.6
20260904134602 23 181 9.7 0.0 0.00 0.00 0.00 88 1010.4
20260904133102 23 150 8.0 0.0 0.00 0.00 0.00 88 1010.2
20260904131556 23 154 9.7 0.0 0.00 0.00 0.00 89 1010.0
20260904130051 23 155 9.7 0.0 0.00 0.00 0.00 89 1009.8
20260904124551 23 165 8.0 0.0 0.00 0.00 0.00 90 1009.4
20260904123048 23 140 8.0 0.0 0.00 0.00 0.00 89 1009.2
20260904121547 23 168 6.4 0.0 0.00 0.00 0.00 89 1009.1
20260904120055 23 153 4.8 0.0 0.00 0.00 0.00 89 1009.0
20260904114548 23 159 4.8 0.0 0.00 0.00 0.00 88 1008.8
20260904113043 23 183 6.4 0.0 0.00 0.00 0.00 87 1008.5
20260904111540 23 196 9.7 0.0 0.00 0.00 0.00 87 1008.3
20260904110039 23 203 9.7 0.0 0.00 0.00 0.00 86 1008.3
20260904104602 23 180 8.0 0.0 0.00 0.00 0.00 86 1008.1
20260904103039 23 196 8.0 0.0 0.00 0.00 0.00 85 1008.2
20260904101541 23 173 11.3 0.0 0.00 0.00 0.00 85 1008.1
20260904100042 23 189 11.3 0.0 0.00 0.00 0.00 85 1008.1
20260904094549 23 186 11.3 0.0 0.00 0.00 0.00 86 1008.3
20260904093036 23 162 9.7 0.0 0.00 0.00 0.00 86 1008.3
20260904091535 23 184 11.3 0.0 0.00 0.00 0.00 86 1008.2
20260904090031 23 175 9.7 0.0 0.00 0.00 0.00 86 1008.2
20260904084531 23 161 8.0 0.0 0.00 0.00 0.00 86 1008.0
20260904083030 23 165 11.3 0.0 0.00 0.00 0.00 86 1008.1
20260904081528 23 163 8.0 0.0 0.00 0.00 0.00 86 1008.0
20260904080030 23 150 9.7 0.0 0.00 0.00 0.00 85 1008.2
20260904074526 23 171 9.7 0.0 0.00 0.00 0.00 84 1008.2
20260904073031 23 182 11.3 0.0 0.00 0.00 0.00 83 1008.3
20260904071521 23 169 11.3 0.0 0.00 0.00 0.00 83 1008.3
20260904070035 24 186 12.9 0.0 0.00 0.00 0.00 82 1008.4
20260904064516 24 173 11.3 0.0 0.00 0.00 0.00 82 1008.7
20260904063015 24 174 12.9 0.0 0.00 0.00 0.00 81 1008.7
20260904061513 24 170 12.9 0.0 0.00 0.00 0.00 81 1008.8
20260904060009 25 167 11.3 0.0 0.00 0.00 0.00 80 1008.9
20260904054506 25 148 12.9 0.0 0.00 0.00 0.00 79 1008.8
20260904053006 25 139 14.5 0.0 0.00 0.00 0.00 79 1008.6
20260904051611 25 176 16.1 0.0 0.00 0.00 0.00 77 1008.4
20260904050056 26 165 11.3 0.0 0.00 0.00 0.00 73 1008.4
20260904044604 26 153 9.7 0.0 0.00 0.00 0.00 68 1008.8
20260904043102 26 159 8.0 0.0 0.00 0.00 0.00 67 1008.6
20260904041557 26 163 9.7 0.0 0.00 0.00 0.00 66 1008.2
20260904040054 27 159 9.7 0.0 0.00 0.00 0.00 65 1008.2
20260904034554 27 175 8.0 0.0 0.00 0.00 0.00 65 1008.6
20260904033104 27 146 6.4 0.0 0.00 0.00 0.00 64 1008.6
20260904031553 27 105 4.8 0.0 0.00 0.00 0.00 64 1008.3
20260904030052 27 113 6.4 0.0 0.00 0.00 0.00 63 1008.2
20260904024602 27 87 6.4 0.0 0.00 0.00 0.00 62 1008.2
20260904023100 27 157 6.4 0.0 0.00 0.00 0.00 61 1007.9
20260904021550 28 108 4.8 0.0 0.00 0.00 0.00 62 1007.7
20260904020051 28 96 4.8 0.0 0.00 0.00 0.00 62 1007.2
20260904014603 28 92 6.4 0.0 0.00 0.00 0.00 60 1007.2
20260904013050 29 128 4.8 0.0 0.00 0.00 0.00 58 1006.9
20260904011550 30 146 4.8 0.0 0.00 0.00 0.00 55 1006.7
20260904010050 31 115 4.8 0.0 0.00 0.00 0.00 52 1006.5
20260904004549 31 124 6.4 0.0 0.00 0.00 0.00 50 1006.6
20260904003050 32 134 3.2 0.0 0.00 0.00 0.00 49 1006.1
20260904001554 33 118 4.8 0.0 0.00 0.00 0.00 46 1005.8
20260904000110 33 132 4.8 0.0 0.00 0.00 0.00 44 1005.8
20260903234547 33 116 3.2 0.0 0.00 0.00 0.00 43 1005.9
20260903233109 34 91 3.2 0.0 0.00 0.00 0.00 44 1005.9
20260903231548 34 91 3.2 0.0 0.00 0.00 0.00 42 1005.9
20260903230105 35 115 6.4 0.0 0.00 0.00 0.00 41 1005.5
20260903224559 35 102 8.0 0.0 0.00 0.00 0.00 41 1005.5
20260903223111 35 174 4.8 0.0 0.00 0.00 0.00 41 1005.3
20260903221544 35 120 6.4 0.0 0.00 0.00 0.00 42 1005.6
20260903220042 33 133 1.6 0.0 0.00 0.00 0.00 45 1005.8
20260903214548 33 174 4.8 0.0 0.00 0.00 0.00 45 1005.8
20260903213053 33 72 3.2 0.0 0.00 0.00 0.00 43 1005.9
20260903211543 35 102 4.8 0.0 0.00 0.00 0.00 39 1005.9
20260903210059 36 135 4.8 0.0 0.00 0.00 0.00 40 1005.8
20260903204541 35 144 4.8 0.0 0.00 0.00 0.00 43 1006.2
20260903203037 35 165 4.8 0.0 0.00 0.00 0.00 42 1006.3
20260903201535 36 73 6.4 0.0 0.00 0.00 0.00 39 1006.3
20260903200034 36 244 6.4 0.0 0.00 0.00 0.00 39 1006.4
20260903194541 35 219 6.4 0.0 0.00 0.00 0.00 39 1006.6
20260903193031 35 213 8.0 0.0 0.00 0.00 0.00 40 1007.1
20260903191529 35 208 6.4 0.0 0.00 0.00 0.00 40 1007.1
20260903190028 35 196 11.3 0.0 0.00 0.00 0.00 41 1007.7
20260903184524 34 221 11.3 0.0 0.00 0.00 0.00 41 1007.9
20260903183021 34 132 11.3 0.0 0.00 0.00 0.00 42 1008.1
20260903181519 33 240 11.3 0.0 0.00 0.00 0.00 43 1008.3
20260903180018 33 214 8.0 0.0 0.00 0.00 0.00 45 1008.7
20260903174515 32 186 8.0 0.0 0.00 0.00 0.00 47 1008.7
20260903173013 32 215 9.7 0.0 0.00 0.00 0.00 52 1009.0
20260903171510 32 161 9.7 0.0 0.00 0.00 0.00 51 1009.3
20260903170012 31 229 12.9 0.0 0.00 0.00 0.00 52 1009.4
20260903164506 31 204 9.7 0.0 0.00 0.00 0.00 56 1009.4
20260903163006 30 202 11.3 0.0 0.00 0.00 0.00 61 1009.5
20260903161601 30 200 9.7 0.0 0.00 0.00 0.00 64 1009.5
20260903160057 28 171 8.0 0.0 0.00 0.00 0.00 68 1009.6
20260903154559 27 192 9.7 0.0 0.00 0.00 0.00 70 1009.5
20260903153054 27 170 12.9 0.0 0.00 0.00 0.00 72 1009.4
20260903151554 27 194 16.1 0.0 0.00 0.00 0.00 74 1009.4
20260903144553 27 195 11.3 0.0 0.00 0.00 0.00 77 1009.4
20260903143056 26 156 12.9 0.0 0.00 0.00 0.00 79 1009.6
20260903141558 26 195 12.9 0.0 0.00 0.00 0.00 82 1009.6